EXPRESS AMU-3

Last updated on Sun Apr 12 2026 00:02:56 GMT+0000 (Coordinated Universal Time)

1 50002U 21123B 26101.16001637 -.00000320 00000+0 00000+0 0 9994 2 50002 0.0199 245.6298 0000866 352.2581 122.1020 1.00272943 6361
UTC large
Height (km)
Speed (km/s)
/
Latitude / Longitude
Inclination (degrees)
Orbital Period (minutes)
Azimuth
Elevation
Range (km)
Doppler Factor

Next 0 passes for location: London (51.5072 / 0.1276)

Sorry there are no passes over London.
EXPRESS AMU-3